Blackpool, United Kingdom

7:10 PM BST on May 24, 2018 (GMT +0100)
Blackpool

Weather History for EGNH - August, 2013

Change the Weather History Date:

Wednesday, August 21, 2013

  Actual Average Record
Temperature  
Mean Temperature 62 °F -  
Max Temperature 68 °F 62 °F 71 °F (2015)
Min Temperature 57 °F 52 °F 39 °F (1999)
Degree Days  
Heating Degree Days 2    
Growing Degree Days 12 (Base 50)    
Moisture  
Dew Point 60 °F    
Average Humidity 89    
Maximum Humidity 100    
Minimum Humidity 68    
Precipitation  
Precipitation 0.16 in - - ()
Sea Level Pressure  
Sea Level Pressure 30.13 in    
Wind  
Wind Speed 10 mph ()    
Max Wind Speed 21 mph    
Max Gust Speed -    
Visibility 4.9 miles    
Events Rain    
Averages and records for this station are not official NWS values.
T = Trace of Precipitation, MM = Missing Value Source: Averaged Metar Reports

Daily Weather History Graph

Daily Weather History Graph

Search for Another Location

Airport or City:

Astronomy

Aug. 21, 2013 Rise Set
Actual Time 6:01 AM BST 8:27 PM BST
Civil Twilight 5:22 AM BST 9:06 PM BST
Nautical Twilight 4:32 AM BST 9:55 PM BST
Astronomical Twilight 3:32 AM BST 10:55 PM BST
Moon 8:09 PM BST (8/21) 6:36 AM BST (8/21)
Length of Visible Light 15h 44m
Length of Day
14h 26m
Full, 100% of the Moon is Illuminated
Aug 21
Full
Aug 28
Last Quarter
Sep 5
New
Sep 12
First Quarter
Sep 19
Full

Hourly Weather History & Observations

Time (BST) Temp. Dew Point Humidity Pressure Visibility Wind Dir Wind Speed Gust Speed Precip Events Conditions
12:50 AM 62 °F 54 °F 68%  in - SSW 15.0 mph - -  
6:20 AM 59.0 °F 53.6 °F 82% 30.15 in 6.2 mi SSE 11.5 mph - N/A   Mostly Cloudy
6:50 AM 58 °F 55 °F 88%  in - SSE 6.9 mph - -  
6:50 AM 59.0 °F 55.4 °F 88% 30.15 in 3.7 mi SE 6.9 mph - N/A   Light Drizzle
7:20 AM 57.2 °F 55.4 °F 94% 30.15 in 5.0 mi SE 6.9 mph - N/A   Light Drizzle
7:50 AM 59.0 °F 55.4 °F 88% 30.15 in 3.1 mi SE 8.1 mph - N/A   Light Drizzle
8:20 AM 59.0 °F 57.2 °F 94% 30.15 in 3.1 mi SSE 5.8 mph - N/A   Light Drizzle
8:50 AM 60.8 °F 59.0 °F 94% 30.15 in 2.5 mi South 8.1 mph - N/A   Light Drizzle
9:20 AM 60.8 °F 59.0 °F 94% 30.15 in 2.5 mi South 12.7 mph - N/A   Light Drizzle
9:50 AM 60 °F 60 °F 99%  in - SSW 12.7 mph - -  
9:50 AM 60.8 °F 60.8 °F 100% 30.15 in 2.5 mi South 12.7 mph - N/A   Light Drizzle
10:20 AM 60.8 °F 60.8 °F 100% 30.15 in 2.5 mi SSE 8.1 mph - N/A   Light Drizzle
10:50 AM 60.8 °F 59.0 °F 94% 30.15 in 1.6 mi SE 8.1 mph - N/A Rain Rain
11:20 AM 60.8 °F 59.0 °F 94% 30.15 in 1.2 mi SSE 9.2 mph - N/A Rain Rain
11:50 AM 62.6 °F 60.8 °F 94% 30.15 in 2.5 mi SSE 9.2 mph - N/A Rain Rain
12:20 PM 62.6 °F 60.8 °F 94% 30.12 in 6.2 mi South 8.1 mph - N/A Rain Light Rain
12:50 PM 65 °F 63 °F 92%  in - SW 18.4 mph - -  
12:50 PM 64.4 °F 62.6 °F 94% 30.12 in 6.2 mi SSW 17.3 mph - N/A   Scattered Clouds
1:20 PM 66.2 °F 62.6 °F 88% 30.15 in 6.2 mi SW 13.8 mph - N/A   Scattered Clouds
2:20 PM 66.2 °F 62.6 °F 88% 30.12 in 6.2 mi SW 12.7 mph - N/A   Mostly Cloudy
2:50 PM 68.0 °F 62.6 °F 83% 30.12 in 6.2 mi SW 12.7 mph - N/A   Scattered Clouds
3:20 PM 66.2 °F 62.6 °F 88% 30.12 in 6.2 mi WSW 12.7 mph - N/A   Scattered Clouds
3:50 PM 66 °F 62 °F 83%  in - West 20.7 mph - -  
3:50 PM 66.2 °F 62.6 °F 88% 30.12 in 6.2 mi WSW 17.3 mph - N/A   Partly Cloudy
4:20 PM 66.2 °F 60.8 °F 83% 30.12 in 6.2 mi WSW 17.3 mph - N/A   Partly Cloudy
4:50 PM 66.2 °F 60.8 °F 83% 30.12 in 6.2 mi WSW 15.0 mph - N/A   Partly Cloudy
5:20 PM 68.0 °F 62.6 °F 83% 30.12 in 6.2 mi WSW 15.0 mph - N/A   Partly Cloudy
5:50 PM 66.2 °F 60.8 °F 83% 30.09 in 6.2 mi WSW 15.0 mph - N/A   Partly Cloudy
6:20 PM 66.2 °F 62.6 °F 88% 30.09 in 6.2 mi WSW 15.0 mph - N/A   Partly Cloudy
6:50 PM 65 °F 62 °F 86%  in - WSW 12.7 mph - -  
7:20 PM 64.4 °F 60.8 °F 88% 30.12 in 6.2 mi WSW 12.7 mph - N/A   Partly Cloudy
7:50 PM 64.4 °F 60.8 °F 88% 30.12 in 6.2 mi WSW 12.7 mph - N/A   Mostly Cloudy
8:20 PM 64.4 °F 60.8 °F 88% 30.09 in 6.2 mi WSW 11.5 mph - N/A   Mostly Cloudy
8:50 PM 64.4 °F 60.8 °F 88% 30.09 in 6.2 mi WSW 10.4 mph - N/A   Overcast
9:20 PM 64.4 °F 60.8 °F 88% 30.12 in 6.2 mi SW 10.4 mph - N/A   Overcast
9:50 PM 64.4 °F 60.8 °F 88% 30.12 in 6.2 mi SW 11.5 mph - N/A   Mostly Cloudy